Flag for U.S.A. Weather past 2 weeks in Grand Rapids, Michigan, U.S.A.

Now
29 °F

Passing clouds.


Feels Like: 20 °F
Forecast: 31 / 40 °F
Wind: 10 mph from Southeast

Location: Kent County International Airport

Current Time: Dec 21, 2014 at 11:23:39 PM

Latest Report: Dec 21, 2014 at 9:53 PM


Visibility: 5 mi

Pressure: 30.17 "Hg

Humidity: 82%

Dew point: 24 °F

Location of Grand RapidsLocation

Historic Weather in Grand Rapids — Graph

°F

Grand Rapids temperature yesterday

Maximum temperature yesterday: 32 °F (at 1:53 PM)
Minimum temperature yesterday: 18 °F (at 4:53 AM)
Average temperature yesterday: 26 °F

Past Weeks' High & Low Weather Summary

 TemperatureHumidityPressure
High49 °F (Dec 15, 2:53 PM)100% (Dec 13, 4:53 PM)30.72 "Hg (Dec 13, 4:53 PM)
Low18 °F (Dec 20, 4:53 AM)48% (Dec 7, 3:53 PM)29.66 "Hg (Dec 16, 6:53 AM)
Average33 °F83%30.19 "Hg
* Reported Dec 6 9:53 PM — Dec 21 9:53 PM, Grand Rapids, Weather by CustomWeather, © 2014

Note: Actual official high and low records may vary slightly from our data, if they occured in-between our weather recording intervals... More about our weather records

Advertising

Grand Rapids weather history for previous 24 hours

 ConditionsComfort  
Time TempWeatherWind HumidityBarometerVisibility
9:53 PM
Dec 21
29 °FPassing clouds.10 mph82%30.17 "Hg5 mi
8:53 PM30 °FPassing clouds.12 mph79%30.17 "Hg6 mi
7:53 PM30 °FPassing clouds.9 mph79%30.18 "Hg6 mi
6:53 PM29 °FPassing clouds.8 mph79%30.18 "Hg7 mi
5:53 PM31 °FPartly cloudy.8 mph76%30.18 "Hg8 mi
4:53 PM32 °FBroken clouds.8 mph75%30.18 "Hg6 mi
3:53 PM34 °FPartly sunny.9 mph73%30.19 "Hg6 mi
2:53 PM34 °FOvercast.10 mph70%30.19 "Hg6 mi
1:53 PM34 °FOvercast.8 mph70%30.20 "Hg5 mi
12:53 PM33 °FOvercast.10 mph72%30.22 "Hg5 mi
11:53 AM33 °FMostly cloudy.9 mph75%30.25 "Hg5 mi
10:53 AM32 °FOvercast.9 mph79%30.28 "Hg4 mi
9:53 AM31 °FMostly cloudy.9 mph82%30.28 "Hg3 mi
8:53 AM30 °FIce fog.8 mph85%30.27 "Hg3 mi
7:53 AM30 °FIce fog.7 mph85%30.28 "Hg5 mi
6:53 AM30 °FIce fog.9 mph85%30.28 "Hg5 mi
5:53 AM30 °FIce fog.7 mph85%30.28 "Hg4 mi
4:53 AM31 °FOvercast.8 mph82%30.28 "Hg5 mi
3:53 AM30 °FIce fog.6 mph89%30.28 "Hg5 mi
2:53 AM30 °FIce fog.6 mph89%30.29 "Hg5 mi
1:53 AM30 °FIce fog.6 mph89%30.27 "Hg4 mi
12:53 AM30 °FIce fog.7 mph89%30.27 "Hg4 mi
11:53 PM
Dec 20
30 °FLight snow. Ice fog.6 mph85%30.29 "Hg5 mi
Weather by CustomWeather, © 2014

See weather overviewHow to use our weather pages